Location: *
(46.3500°N, 10.9000°E)
Time: 03:55:51
(UTC+00:00)

BREEZE-M DEB (TANK) - Pass Details

Date: 09 April 2020
Orbit: 320 x 11934 km, 49.7° (Epoch: 06 June)

Event Time Altitude Azimuth Distance (km) Brightness Sun altitude
Rises 18:36:06 0° 288° (WNW) 5,988 11.4 -7.4°
Reaches altitude 10° 18:41:35 10° 290° (WNW) 3,611 9.3 -8.3°
Maximum altitude 18:48:40 84° 19° (NNE) 615 3.6 -9.4°
Enters shadow 18:51:05 14° 108° (ESE) 1,287 4.6 -9.8°
